Location: Byhalia Creek
(34.8270°N, 89.8040°W)
Time: 20:57:24
(UTC+00:00)

SL-14 R/B - Pass Details

Date: 22 April 2026
Orbit: 495 x 526 km, 82.4° (Epoch: 21 May)

Event Time Altitude Azimuth Distance (km) Brightness Sun altitude
Exits shadow 09:23:17 28° 148° (SSE) 998 4.6 -22.3°
Maximum altitude 09:24:52 45° 93° (E) 721 4.2 -22.0°
Drops below altitude 10° 09:28:36 10° 20° (NNE) 1,772 6.6 -21.4°
Sets 09:30:48 0° 14° (NNE) 2,665 7.5 -21.0°
